Location: Newark
(41.6478°N, 9.0078°E)
Time: 11:16:35
(UTC+00:00)

UWE-3 - Pass Details

Date: 31 January 2020
Orbit: 586 x 682 km, 97.6° (Epoch: 25 February)

Event Time Altitude Azimuth Distance (km) Brightness Sun altitude
Rises 05:39:18 0° 2° (N) 2,902 ? -11.2°
Reaches altitude 10° 05:41:37 10° 353° (N) 2,007 ? -10.8°
Maximum altitude 05:45:33 34° 289° (WNW) 1,058 ? -10.0°
Drops below altitude 10° 05:49:34 10° 225° (SW) 2,048 ? -9.3°
Sets 05:51:57 0° 216° (SW) 2,970 ? -8.9°
